timestamp,wind_dir_avg,wind_spd_avg,wind_spd_max_dir,wind_spd_gust,battery_voltage,lat,long
2022-07-08 00:04:00+00:00,333.0,9.99,329.0,10.91,12.81,47.59359,-54.27349
2022-07-08 00:14:01+00:00,338.0,9.85,340.0,12.61,12.49,47.59359,-54.27349
2022-07-08 00:24:01+00:00,323.0,10.23,322.0,11.63,12.49,47.59359,-54.27349
2022-07-08 00:34:01+00:00,333.0,10.68,335.0,12.22,12.49,47.59359,-54.27349
2022-07-08 00:44:01+00:00,336.0,10.05,333.0,11.46,12.49,47.59359,-54.27349
2022-07-08 00:54:01+00:00,338.0,10.82,339.0,13.35,12.49,47.59359,-54.27349
2022-07-08 01:04:01+00:00,351.0,12.04,350.0,13.14,12.49,47.59359,-54.27349
2022-07-08 01:14:00+00:00,352.0,12.13,3.0,13.8,12.33,47.59359,-54.27349
2022-07-08 01:24:00+00:00,342.0,12.23,344.0,13.64,12.33,47.59359,-54.27349
2022-07-08 01:34:00+00:00,345.0,13.47,334.0,16.36,12.33,47.59359,-54.27349
2022-07-08 01:44:00+00:00,355.0,11.63,3.0,13.41,12.33,47.59359,-54.27349
2022-07-08 01:54:00+00:00,356.0,12.66,7.0,16.74,12.33,47.59359,-54.27349
2022-07-08 02:04:00+00:00,351.0,12.78,344.0,14.18,12.33,47.59359,-54.27349
2022-07-08 02:14:00+00:00,340.0,10.12,342.0,12.2,12.41,47.59359,-54.27349
2022-07-08 02:24:00+00:00,357.0,13.8,6.0,16.46,12.41,47.59359,-54.27349
2022-07-08 02:34:00+00:00,350.0,9.83,1.0,10.81,12.41,47.59359,-54.27349
2022-07-08 02:44:00+00:00,354.0,10.69,357.0,12.57,12.41,47.59359,-54.27349
2022-07-08 02:54:00+00:00,352.0,8.67,354.0,9.61,12.41,47.59359,-54.27349
2022-07-08 03:04:00+00:00,344.0,8.34,331.0,10.04,12.41,47.59359,-54.27349
2022-07-08 03:14:01+00:00,325.0,6.8,328.0,8.0,12.33,47.59359,-54.27349
2022-07-08 03:24:01+00:00,324.0,4.95,325.0,5.5,12.33,47.59359,-54.27349
2022-07-08 03:34:01+00:00,319.0,6.79,321.0,7.99,12.33,47.59359,-54.27349
2022-07-08 03:44:01+00:00,327.0,7.27,327.0,8.42,12.33,47.59359,-54.27349
2022-07-08 03:54:01+00:00,335.0,7.53,330.0,8.75,12.33,47.59359,-54.27349
2022-07-08 04:04:01+00:00,333.0,5.07,330.0,6.07,12.33,47.59359,-54.27349
2022-07-08 04:14:00+00:00,327.0,5.14,327.0,6.64,12.33,47.59359,-54.27349
2022-07-08 04:24:00+00:00,338.0,3.52,337.0,4.13,12.33,47.59359,-54.27349
2022-07-08 04:34:00+00:00,332.0,2.8,331.0,3.15,12.33,47.59359,-54.27349
2022-07-08 04:44:00+00:00,336.0,2.5,343.0,2.96,12.33,47.59359,-54.27349
2022-07-08 04:54:00+00:00,313.0,4.01,317.0,4.64,12.33,47.59359,-54.27349
2022-07-08 05:04:00+00:00,302.0,4.95,304.0,5.97,12.33,47.59359,-54.27349
2022-07-08 05:14:00+00:00,305.0,5.75,306.0,8.1,12.41,47.59359,-54.27349
2022-07-08 05:24:00+00:00,317.0,5.95,308.0,8.14,12.41,47.59359,-54.27349
2022-07-08 05:34:00+00:00,318.0,5.4,325.0,6.67,12.41,47.59359,-54.27349
2022-07-08 05:44:00+00:00,341.0,4.89,326.0,6.14,12.41,47.59359,-54.27349
2022-07-08 05:54:00+00:00,338.0,4.51,337.0,5.56,12.41,47.59359,-54.27349
2022-07-08 06:04:00+00:00,343.0,4.71,342.0,5.64,12.41,47.59359,-54.27349
2022-07-08 06:14:00+00:00,337.0,3.59,314.0,4.17,12.41,47.59359,-54.27349
2022-07-08 06:24:00+00:00,315.0,1.93,310.0,2.3,12.41,47.59359,-54.27349
2022-07-08 06:34:00+00:00,308.0,1.21,300.0,1.45,12.41,47.59359,-54.27349
2022-07-08 06:44:00+00:00,244.0,0.88,248.0,1.25,12.41,47.59359,-54.27349
2022-07-08 06:54:00+00:00,205.0,0.75,208.0,0.93,12.41,47.59359,-54.27349
2022-07-08 07:04:00+00:00,260.0,0.44,241.0,0.72,12.41,47.59359,-54.27349
2022-07-08 07:14:01+00:00,305.0,1.24,293.0,1.88,12.33,47.59359,-54.27349
2022-07-08 07:24:01+00:00,302.0,1.16,292.0,1.39,12.33,47.59359,-54.27349
2022-07-08 07:34:01+00:00,302.0,1.42,297.0,1.64,12.33,47.59359,-54.27349
2022-07-08 07:44:01+00:00,326.0,1.35,326.0,1.72,12.33,47.59359,-54.27349
2022-07-08 07:54:01+00:00,320.0,1.02,318.0,1.25,12.33,47.59359,-54.27349
2022-07-08 08:04:01+00:00,318.0,1.33,317.0,1.59,12.33,47.59359,-54.27349
2022-07-08 08:14:00+00:00,287.0,1.24,287.0,2.14,12.33,47.59359,-54.27349
2022-07-08 08:24:00+00:00,324.0,1.46,286.0,2.7,12.33,47.59359,-54.27349
2022-07-08 08:34:00+00:00,255.0,1.69,256.0,2.15,12.33,47.59359,-54.27349
2022-07-08 08:44:00+00:00,260.0,3.05,265.0,3.31,12.33,47.59359,-54.27349
2022-07-08 08:54:00+00:00,270.0,2.8,275.0,3.16,12.33,47.59359,-54.27349
2022-07-08 09:04:00+00:00,273.0,2.07,277.0,2.8,12.33,47.59359,-54.27349
2022-07-08 09:14:01+00:00,232.0,2.16,236.0,2.61,12.41,47.59359,-54.27349
2022-07-08 09:24:01+00:00,220.0,2.29,230.0,3.01,12.41,47.59359,-54.27349
2022-07-08 09:34:01+00:00,235.0,2.1,241.0,2.33,12.41,47.59359,-54.27349
2022-07-08 09:44:01+00:00,249.0,2.37,248.0,2.84,12.41,47.59359,-54.27349
2022-07-08 09:54:01+00:00,262.0,3.08,267.0,3.38,12.41,47.59359,-54.27349
2022-07-08 10:04:01+00:00,273.0,3.1,265.0,3.48,12.41,47.59359,-54.27349
2022-07-08 10:14:01+00:00,239.0,3.2,239.0,3.54,13.29,47.59359,-54.27349
2022-07-08 10:24:01+00:00,225.0,3.22,225.0,3.62,13.29,47.59359,-54.27349
2022-07-08 10:34:01+00:00,193.0,3.94,197.0,4.29,13.29,47.59359,-54.27349
2022-07-08 10:44:01+00:00,177.0,3.64,178.0,3.99,13.29,47.59359,-54.27349
2022-07-08 10:54:01+00:00,196.0,2.83,194.0,3.52,13.29,47.59359,-54.27349
2022-07-08 11:04:01+00:00,207.0,3.86,211.0,4.2,13.29,47.59359,-54.27349
2022-07-08 11:14:00+00:00,198.0,3.79,198.0,4.14,13.53,47.59359,-54.27349
2022-07-08 11:24:00+00:00,187.0,4.78,190.0,5.34,13.53,47.59359,-54.27349
2022-07-08 11:34:00+00:00,204.0,4.01,210.0,4.59,13.53,47.59359,-54.27349
2022-07-08 11:44:00+00:00,197.0,3.63,199.0,4.09,13.53,47.59359,-54.27349
2022-07-08 11:54:00+00:00,196.0,3.47,196.0,3.95,13.53,47.59359,-54.27349
2022-07-08 12:04:00+00:00,189.0,3.53,192.0,3.9,13.53,47.59359,-54.27349
2022-07-08 12:14:01+00:00,184.0,4.12,184.0,4.48,13.68,47.59359,-54.27349
2022-07-08 12:24:01+00:00,187.0,4.49,189.0,5.1,13.68,47.59359,-54.27349
2022-07-08 12:34:01+00:00,200.0,3.87,201.0,4.33,13.68,47.59359,-54.27349
2022-07-08 12:44:01+00:00,198.0,5.67,205.0,6.57,13.68,47.59359,-54.27349
2022-07-08 12:54:01+00:00,211.0,5.58,211.0,5.93,13.68,47.59359,-54.27349
2022-07-08 13:04:01+00:00,206.0,4.71,211.0,5.31,13.68,47.59359,-54.27349
2022-07-08 13:14:01+00:00,205.0,5.08,206.0,5.52,13.68,47.59359,-54.27349
2022-07-08 13:24:01+00:00,212.0,4.42,210.0,4.87,13.68,47.59359,-54.27349
2022-07-08 13:34:01+00:00,206.0,5.18,206.0,5.59,13.68,47.59359,-54.27349
2022-07-08 13:44:01+00:00,208.0,5.3,211.0,5.76,13.68,47.59359,-54.27349
2022-07-08 13:54:01+00:00,208.0,4.66,207.0,5.28,13.68,47.59359,-54.27349
2022-07-08 14:04:01+00:00,211.0,4.87,215.0,5.45,13.68,47.59359,-54.27349
2022-07-08 14:14:00+00:00,217.0,5.2,221.0,5.59,14.08,47.59359,-54.27349
2022-07-08 14:24:00+00:00,224.0,5.02,220.0,5.56,14.08,47.59359,-54.27349
2022-07-08 14:34:00+00:00,223.0,5.43,227.0,6.01,14.08,47.59359,-54.27349
2022-07-08 14:44:00+00:00,210.0,4.92,212.0,5.39,14.08,47.59359,-54.27349
2022-07-08 14:54:00+00:00,217.0,5.88,216.0,6.51,14.08,47.59359,-54.27349
2022-07-08 15:04:00+00:00,209.0,7.3,206.0,8.08,14.08,47.59359,-54.27349
2022-07-08 15:14:01+00:00,219.0,7.55,228.0,10.17,14.0,47.59359,-54.27349
2022-07-08 15:24:01+00:00,221.0,8.62,233.0,11.23,14.0,47.59359,-54.27349
2022-07-08 15:34:01+00:00,213.0,7.4,201.0,10.38,14.0,47.59359,-54.27349
2022-07-08 15:44:01+00:00,213.0,7.67,230.0,10.18,14.0,47.59359,-54.27349
2022-07-08 15:54:01+00:00,215.0,7.61,230.0,10.76,14.0,47.59359,-54.27349
2022-07-08 16:04:01+00:00,211.0,7.62,219.0,9.63,14.0,47.59359,-54.27349
2022-07-08 16:14:00+00:00,220.0,8.28,232.0,11.28,14.32,47.59359,-54.27349
2022-07-08 16:24:00+00:00,229.0,9.12,238.0,11.63,14.32,47.59359,-54.27349
2022-07-08 16:34:00+00:00,221.0,8.49,229.0,11.39,14.32,47.59359,-54.27349
2022-07-08 16:44:00+00:00,219.0,8.32,230.0,10.82,14.32,47.59359,-54.27349
2022-07-08 16:54:00+00:00,212.0,8.34,226.0,10.04,14.32,47.59359,-54.27349
2022-07-08 17:04:00+00:00,212.0,7.55,220.0,8.64,14.32,47.59359,-54.27349
2022-07-08 17:14:01+00:00,207.0,6.69,210.0,7.27,14.24,47.59359,-54.27349
2022-07-08 17:24:01+00:00,215.0,8.52,231.0,11.4,14.24,47.59359,-54.27349
2022-07-08 17:34:01+00:00,209.0,8.34,222.0,9.91,14.24,47.59359,-54.27349
2022-07-08 17:44:01+00:00,206.0,8.79,222.0,11.24,14.24,47.59359,-54.27349
2022-07-08 17:54:01+00:00,225.0,11.38,230.0,12.44,14.24,47.59359,-54.27349
2022-07-08 18:04:01+00:00,214.0,9.0,229.0,11.39,14.24,47.59359,-54.27349
2022-07-08 18:14:00+00:00,208.0,8.42,217.0,9.99,13.92,47.59359,-54.27349
2022-07-08 18:24:00+00:00,207.0,8.55,225.0,10.23,13.92,47.59359,-54.27349
2022-07-08 18:34:00+00:00,202.0,8.89,204.0,9.79,13.92,47.59359,-54.27349
2022-07-08 18:44:00+00:00,203.0,8.74,203.0,10.42,13.92,47.59359,-54.27349
2022-07-08 18:54:00+00:00,203.0,8.13,199.0,9.14,13.92,47.59359,-54.27349
2022-07-08 19:04:00+00:00,206.0,8.01,203.0,8.93,13.92,47.59359,-54.27349
2022-07-08 19:14:01+00:00,206.0,8.51,219.0,10.08,13.68,47.59359,-54.27349
2022-07-08 19:24:01+00:00,200.0,8.1,201.0,9.11,13.68,47.59359,-54.27349
2022-07-08 19:34:01+00:00,198.0,7.72,200.0,8.49,13.68,47.59359,-54.27349
2022-07-08 19:44:01+00:00,201.0,7.81,203.0,8.63,13.68,47.59359,-54.27349
2022-07-08 19:54:01+00:00,206.0,7.4,208.0,8.69,13.68,47.59359,-54.27349
2022-07-08 20:04:01+00:00,203.0,7.37,202.0,8.23,13.68,47.59359,-54.27349
2022-07-08 20:14:01+00:00,203.0,7.94,209.0,8.64,13.68,47.59359,-54.27349
2022-07-08 20:24:01+00:00,206.0,7.09,210.0,8.01,13.68,47.59359,-54.27349
2022-07-08 20:34:01+00:00,212.0,6.72,212.0,7.53,13.68,47.59359,-54.27349
2022-07-08 20:44:01+00:00,212.0,7.38,209.0,8.15,13.68,47.59359,-54.27349
2022-07-08 20:54:01+00:00,216.0,7.66,219.0,9.37,13.68,47.59359,-54.27349
2022-07-08 21:04:01+00:00,209.0,7.42,208.0,8.01,13.68,47.59359,-54.27349
2022-07-08 21:14:01+00:00,212.0,6.96,215.0,7.66,13.44,47.59359,-54.27349
2022-07-08 21:24:01+00:00,207.0,8.02,205.0,9.11,13.44,47.59359,-54.27349
2022-07-08 21:34:01+00:00,212.0,7.92,214.0,8.99,13.44,47.59359,-54.27349
2022-07-08 21:44:01+00:00,212.0,7.64,211.0,8.24,13.44,47.59359,-54.27349
2022-07-08 21:54:01+00:00,210.0,8.18,213.0,8.72,13.44,47.59359,-54.27349
2022-07-08 22:04:01+00:00,211.0,8.77,217.0,10.13,13.44,47.59359,-54.27349
2022-07-08 22:14:01+00:00,212.0,8.49,210.0,9.7,13.29,47.59359,-54.27349
2022-07-08 22:24:01+00:00,213.0,8.03,215.0,8.96,13.29,47.59359,-54.27349
2022-07-08 22:34:01+00:00,214.0,8.05,219.0,9.28,13.29,47.59359,-54.27349
2022-07-08 22:44:01+00:00,215.0,7.35,221.0,8.63,13.29,47.59359,-54.27349
2022-07-08 22:54:01+00:00,213.0,7.72,218.0,8.82,13.29,47.59359,-54.27349
2022-07-08 23:04:01+00:00,215.0,7.73,219.0,9.56,13.29,47.59359,-54.27349
2022-07-08 23:14:01+00:00,212.0,8.27,218.0,9.36,13.13,47.59359,-54.27349
2022-07-08 23:24:01+00:00,217.0,10.04,224.0,11.46,13.13,47.59359,-54.27349
2022-07-08 23:34:01+00:00,216.0,8.77,224.0,11.07,13.13,47.59359,-54.27349
2022-07-08 23:44:01+00:00,216.0,7.76,224.0,9.05,13.13,47.59359,-54.27349
2022-07-08 23:54:01+00:00,214.0,7.45,212.0,8.1,13.13,47.59359,-54.27349
